Print

CHIHRRCWA 000
TTAA00 KDVN 240304
HOURLY WEATHER ROUNDUP
NATIONAL WEATHER SERVICE QUAD CITIES IA IL
1000 PM CDT TUE SEP 23 2014

Note: "Fair" indicates few or no clouds below 12,000 feet with no
significant weather and/or obstructions to visibility.

* - These stations are not NWS stations...and not subject to NWS
quality control.  Some stations do not report weather such as fog.

...NORTHEAST IOWA..................................................

  
CITY           SKY/WX    TMP DP  RH WIND       PRES   REMARKS
DECORAH *      MOCLDY    57  50  77 SE7       30.22R                  
WATERLOO       CLOUDY    63  49  60 S7        30.20R                  
OELWEIN *      CLOUDY    57  50  77 SE6       30.23R                  
INDEPENDENCE * CLOUDY    54  50  87 SE7       30.22S                  
DUBUQUE        MOCLDY    58  49  72 SE9       30.26R                  

...SOUTHWEST AND SOUTH CENTRAL WISCONSIN...........................

  
CITY           SKY/WX    TMP DP  RH WIND       PRES   REMARKS
PRAIRIE DU CHI MOCLDY    59  49  70 E6        30.23R                  
BOSCOBEL       CLOUDY    55  52  89 CALM      30.25R                  
LONE ROCK      MOCLDY    54  48  80 CALM      30.26R                  
MINERAL POINT* CLOUDY    59  46  63 SE5       30.26S                  
MONROE *       PTCLDY    59  48  67 SE7       30.27S                  
JANESVILLE *   CLEAR     55  46  71 SE3       30.28R                  

...EAST CENTRAL IOWA...............................................

  
CITY           SKY/WX    TMP DP  RH WIND       PRES   REMARKS
MARSHALLTOWN   CLOUDY    62  51  67 SE8       30.19R                  
NEWTON *       CLOUDY    61  52  72 SE9       30.20R                  
VINTON *       CLOUDY    60  50  69 CALM      30.22R                  
CEDAR RAPIDS   CLOUDY    58  51  78 SE6       30.22R                  
IOWA CITY      CLOUDY    59  53  80 SE3       30.24R                  
MONTICELLO *   MOCLDY    55  50  82 SE3       30.24R                  
CLINTON *      CLOUDY    61  48  63 S5        30.28R                  
DAVENPORT      CLOUDY    59  47  64 SE3       30.25S                  

...NORTHWEST ILLINOIS..............................................

  
CITY           SKY/WX    TMP DP  RH WIND       PRES   REMARKS
FREEPORT *     NOT AVBL                                               
ROCKFORD       MOCLDY    59  49  69 CALM      30.30R                  
SAVANNA *      CLOUDY    59  47  64 SE5       30.25R                  
STERLING/R.F.* MOCLDY    55  48  76 SE5       30.27R                  
ROCHELLE *     NOT AVBL                                               
MOLINE         CLOUDY    56  50  80 E5        30.24S                  
PERU *         MOCLDY    62  50  65 SE7       30.29R                  

...SOUTHEAST IOWA AND NORTHEAST MISSOURI...........................

  
CITY           SKY/WX    TMP DP  RH WIND       PRES   REMARKS
KNOXVILLE *    CLOUDY    61  52  72 SE5       30.18R                  
OTTUMWA        MOCLDY    61  50  67 SE12      30.19F                  
FAIRFIELD *    MOCLDY    59  50  72 S5        30.23R                  
WASHINGTON *   MOCLDY    57  52  82 SE7       30.23S                  
MT PLEASANT *  PTCLDY    57  49  76 SE5       30.24R                  
BURLINGTON     PTCLDY    57  50  77 SE3       30.24R                  
KIRKSVILLE     CLOUDY    61  52  72 SE9       30.22F                  

...WESTERN ILLINOIS................................................

  
CITY           SKY/WX    TMP DP  RH WIND       PRES   REMARKS
MACOMB *       MOCLDY    53  49  89 CALM      30.27R                  
GALESBURG *    CLOUDY   N/A N/A N/A E5        30.25R                  
PEORIA         CLOUDY    66  47  50 SE6       30.27R                  
QUINCY         CLOUDY    61  51  70 SE3       30.24R                  

END...
  

USA.gov is the U.S. government's official web portal to all federal, state and local government web resources and services.